This is the latest recevied weather packets stored in our database for station/object WC0AA-WX. If no packets are shown the sender has not sent any weather packets the latest 10 day(s).
| Time | Temp. | Humidity | Pressure | Rain* | Wind** | Luminosity | Snow |
|---|---|---|---|---|---|---|---|
| 1787826750 | 16.11° C | 100% | 1018.6 hPa | 0 mm | - | - | - |
| 1787826148 | 16.11° C | 100% | 1018.6 hPa | 0 mm | - | - | - |
| 1787825549 | 16.11° C | 100% | 1018.6 hPa | 0 mm | - | - | - |
| 1787824950 | 16.11° C | 100% | 1018.7 hPa | 0 mm | - | - | - |
| 1787824348 | 15.56° C | 100% | 1018.8 hPa | 0 mm | - | - | - |
| 1787823749 | 15.56° C | 100% | 1018.9 hPa | 0 mm | - | - | - |
| 1787823119 | 16.11° C | 100% | 1018.9 hPa | 0 mm | - | - | - |
| 1787822519 | 16.11° C | 100% | 1018.9 hPa | 0 mm | - | - | - |
| 1787821918 | 16.11° C | 100% | 1018.9 hPa | 0 mm | - | - | - |
| 1787821318 | 16.11° C | 100% | 1018.7 hPa | 0 mm | - | - | - |
| 1787820718 | 16.67° C | 100% | 1018.7 hPa | 0 mm | - | - | - |
| 1787820118 | 16.67° C | 100% | 1018.7 hPa | 0 mm | - | - | - |
| 1787818917 | 16.67° C | 100% | 1018.7 hPa | 0 mm | - | - | - |
| 1787815887 | 17.22° C | 100% | 1018.7 hPa | 0 mm | - | - | - |
| 1787815256 | 17.22° C | 100% | 1018.7 hPa | 0 mm | - | - | - |
| 1787812857 | 17.78° C | 100% | 1018.9 hPa | 0 mm | - | - | - |
| 1787812256 | 17.78° C | 100% | 1019 hPa | 0 mm | - | - | - |
| 1787811656 | 17.78° C | 100% | 1019.1 hPa | 0 mm | - | - | - |
| 1787811056 | 18.33° C | 100% | 1019.1 hPa | 0 mm | - | - | - |
| 1787810425 | 18.33° C | 97% | 1019 hPa | 0 mm | - | - | - |
| 1787809826 | 18.89° C | 97% | 1019 hPa | 0 mm | - | - | - |
| 1787809226 | 18.89° C | 96% | 1018.8 hPa | 0 mm | - | - | - |
| 1787808626 | 19.44° C | 95% | 1018.9 hPa | 0 mm | - | - | - |
| 1787808028 | 19.44° C | 97% | 1018.7 hPa | 0 mm | - | - | - |
| 1787807426 | 19.44° C | 95% | 1018.7 hPa | 0 mm | - | - | - |
* Rain latest hour (hover to see other rain measurements)
** Current wind speed in m/s (hover to see current wind gust speed)